This is the latest recevied weather packets stored in our database for station/object AE5HO. If no packets are shown the sender has not sent any weather packets the latest 10 day(s).
| Time | Temp. | Humidity | Pressure | Rain* | Wind** | Luminosity | Snow |
|---|---|---|---|---|---|---|---|
| 1788158986 | 30° C | 56% | 1015 hPa | 0 mm | - | 0 W/m² | - |
| 1788158681 | 30° C | 56% | 1015.1 hPa | 0 mm | - | 0 W/m² | - |
| 1788158377 | 29.44° C | 58% | 1015.1 hPa | 0 mm | - | 0 W/m² | - |
| 1788158072 | 28.89° C | 59% | 1015 hPa | 0 mm | - | 0 W/m² | - |
| 1788157771 | 28.89° C | 60% | 1015 hPa | 0 mm | - | 0 W/m² | - |
| 1788157467 | 28.89° C | 60% | 1015 hPa | 0 mm | - | 0 W/m² | - |
| 1788157166 | 28.89° C | 58% | 1015.2 hPa | 0 mm | - | 0 W/m² | - |
| 1788156864 | 28.89° C | 63% | 1015.1 hPa | 0 mm | - | 0 W/m² | - |
| 1788156562 | 28.89° C | 63% | 1015 hPa | 0 mm | - | 0 W/m² | - |
| 1788156261 | 29.44° C | 59% | 1015.1 hPa | 0 mm | - | 0 W/m² | - |
| 1788155961 | 29.44° C | 57% | 1015.1 hPa | 0 mm | - | 0 W/m² | - |
| 1788155656 | 30° C | 57% | 1015.1 hPa | 0 mm | - | 0 W/m² | - |
| 1788155351 | 30° C | 56% | 1015.2 hPa | 0 mm | - | 0 W/m² | - |
| 1788155046 | 30° C | 56% | 1015.2 hPa | 0 mm | - | 0 W/m² | - |
| 1788154745 | 30° C | 56% | 1015.2 hPa | 0 mm | - | 0 W/m² | - |
| 1788154444 | 30° C | 56% | 1015.2 hPa | 0 mm | - | 0 W/m² | - |
| 1788154139 | 30° C | 55% | 1015.2 hPa | 0 mm | - | 0 W/m² | - |
| 1788153838 | 30° C | 55% | 1015 hPa | 0 mm | - | 0 W/m² | - |
| 1788153537 | 30° C | 56% | 1015 hPa | 0 mm | - | 0 W/m² | - |
| 1788153235 | 30° C | 55% | 1014.8 hPa | 0 mm | - | 0 W/m² | - |
| 1788152930 | 30.56° C | 54% | 1014.7 hPa | 0 mm | - | 0 W/m² | - |
| 1788152629 | 30.56° C | 54% | 1014.9 hPa | 0 mm | - | 0 W/m² | - |
| 1788152324 | 30.56° C | 54% | 1014.9 hPa | 0 mm | - | 0 W/m² | - |
| 1788152023 | 30.56° C | 54% | 1014.9 hPa | 0 mm | - | 0 W/m² | - |
| 1788151718 | 30.56° C | 53% | 1014.8 hPa | 0 mm | - | 0 W/m² | - |
* Rain latest hour (hover to see other rain measurements)
** Current wind speed in m/s (hover to see current wind gust speed)